Location: ???? ????
(41.4149°N, 22.8816°E)
Time: 15:03:40
(UTC+00:00)

Cosmos 1900 - Pass Details

Date: 14 July 2020
Orbit: 682 x 740 km, 66.1° (Epoch: 04 August)

Event Time Altitude Azimuth Distance (km) Brightness Sun altitude
Exits shadow 00:50:30 42° 202° (SSW) 996 4.6 -19.5°
Maximum altitude 00:52:11 83° 120° (ESE) 709 4.2 -19.3°
Drops below altitude 10° 00:57:10 10° 33° (NNE) 2,186 8.1 -18.8°
Sets 00:59:32 0° 32° (NNE) 3,118 9.4 -18.5°
